Date,TemperatureHighF,TemperatureAvgF,TemperatureLowF,DewpointHighF,DewpointAvgF,DewpointLowF,HumidityHigh,HumidityAvg,HumidityLow,PressureMaxIn,PressureMinIn,WindSpeedMaxMPH,WindSpeedAvgMPH,GustSpeedMaxMPH,PrecipitationSumIn
2013-1-1,26,23,20,20,16,12,86,74,63,30.21,30.09,20,4,20,0.00
2013-1-2,27,24,17,23,19,13,86,82,76,30.21,30.13,17,6,21,0.00
2013-1-3,30,25,18,26,21,13,91,84,76,30.22,30.10,18,7,20,0.00
2013-1-4,34,30,26,28,25,22,88,82,76,30.22,30.07,30,11,30,0.00
2013-1-5,36,31,23,32,27,21,96,87,71,30.25,29.99,17,6,18,0.00
2013-1-6,35,34,32,33,31,25,96,89,75,30.30,29.88,20,6,21,0.08
2013-1-7,37,31,26,27,24,19,89,75,52,30.36,30.14,22,8,23,0.00
2013-1-8,38,32,27,30,26,23,87,80,72,30.24,30.10,16,6,16,0.00
2013-1-9,44,39,33,35,32,27,85,75,57,30.44,30.01,36,10,38,0.00
2013-1-10,46,35,26,35,29,24,97,80,51,30.56,30.07,18,5,20,0.07
2013-1-11,52,46,36,52,45,35,99,96,90,30.07,29.72,21,9,22,0.52
2013-1-12,56,49,38,50,43,34,93,80,50,29.95,29.74,25,7,27,0.52
2013-1-13,38,32,25,35,30,21,97,93,82,30.14,29.82,22,6,23,0.22
2013-1-14,25,22,20,21,18,16,91,84,75,30.48,30.14,23,6,23,0.22
2013-1-15,31,24,18,21,19,15,92,82,65,30.49,30.19,10,3,11,0.00
2013-1-16,35,28,21,31,23,17,88,80,62,30.19,29.83,29,8,29,0.00
2013-1-17,35,28,21,30,19,11,83,71,62,30.40,30.01,26,7,26,0.00
2013-1-18,42,29,19,30,20,12,80,69,60,30.46,29.93,30,9,30,0.00
2013-1-19,46,42,39,38,33,23,78,70,51,29.93,29.61,31,13,42,0.00
2013-1-20,39,18,15,24,13,10,89,81,51,30.27,29.62,41,11,45,0.00
2013-1-21,16,11,4,13,8,1,91,89,79,30.26,30.09,25,8,27,0.00
2013-1-22,12,5,-1,9,2,-4,89,87,79,30.41,30.26,19,3,20,0.00
2013-1-23,18,11,4,15,8,1,92,88,85,30.41,30.14,20,4,20,0.00
2013-1-24,18,11,3,8,5,0,92,77,58,30.72,30.28,8,2,8,0.00
2013-1-25,22,18,13,20,13,4,93,82,69,30.55,30.04,15,5,16,0.00
2013-1-26,28,23,20,21,19,17,93,84,67,30.49,30.13,13,2,13,0.00
2013-1-27,33,26,19,31,22,17,94,84,71,30.49,30.06,25,8,26,0.00
2013-1-28,46,38,33,46,37,31,99,95,91,30.07,29.86,20,6,22,0.33
2013-1-29,56,48,34,56,47,32,100,99,93,29.99,29.38,22,8,23,1.23
2013-1-30,52,41,25,52,41,23,100,98,92,29.39,29.09,26,6,29,1.23
2013-1-31,25,19,15,24,17,14,95,92,84,30.00,29.39,26,11,28,0.65
2013-2-1,16,14,10,15,11,7,94,90,82,30.33,30.00,20,9,21,0.00
2013-2-2,18,15,7,16,11,4,93,85,74,30.26,30.07,14,5,16,0.00
2013-2-3,20,15,7,17,12,4,92,89,83,30.10,29.96,23,4,23,0.00
2013-2-4,24,18,11,18,15,9,93,89,79,30.09,29.94,10,2,11,0.00
2013-2-5,29,20,7,27,18,5,95,91,84,30.08,29.85,18,6,20,0.00
2013-2-6,35,25,11,23,19,9,96,79,60,30.32,30.08,11,3,12,0.00
2013-2-7,35,30,28,32,27,22,97,87,77,30.26,29.89,18,7,22,0.00
2013-2-8,32,28,17,30,24,14,97,86,67,30.42,29.88,19,5,22,0.00
2013-2-9,33,21,7,23,16,5,95,82,65,30.49,30.25,16,5,16,0.00
2013-2-10,43,33,22,42,28,18,96,84,72,30.25,29.58,32,9,34,0.20
2013-2-11,45,36,30,43,32,24,96,86,70,29.94,29.53,35,15,36,0.00
2013-2-12,30,28,27,26,24,23,87,83,80,30.10,29.94,21,8,21,0.00
2013-2-13,40,30,24,30,26,22,93,83,66,29.97,29.75,16,4,16,0.00
2013-2-14,40,34,28,34,32,25,98,91,78,29.94,29.65,27,9,28,0.05
2013-2-15,28,24,20,25,19,15,93,81,65,30.20,29.94,19,5,19,0.00
2013-2-16,21,18,11,19,15,9,93,89,78,30.19,30.10,17,3,18,0.00
2013-2-17,24,15,5,14,9,1,92,78,60,30.32,30.19,14,3,15,0.00
2013-2-18,46,34,20,42,26,13,97,73,63,30.21,29.45,24,12,26,0.15
2013-2-19,43,24,16,42,23,14,98,93,88,30.06,29.39,32,14,35,0.11
2013-2-20,22,19,15,17,15,12,93,83,76,30.37,30.06,26,9,26,0.11
2013-2-21,26,23,21,20,18,16,85,80,75,30.44,30.22,24,7,24,0.00
2013-2-22,33,27,22,32,24,16,96,90,80,30.23,29.89,29,9,29,0.00
2013-2-23,31,28,25,28,25,22,94,89,76,29.96,29.88,20,8,22,0.00
2013-2-24,36,30,21,29,26,20,95,85,67,30.20,29.94,16,4,16,0.02
2013-2-25,44,29,16,29,23,14,97,80,51,30.28,30.11,11,2,11,0.00
2013-2-26,34,31,28,32,27,23,98,85,71,30.14,29.54,37,9,37,0.00
2013-2-27,36,34,32,35,33,32,99,98,97,29.64,29.50,9,2,11,0.29
2013-2-28,37,34,31,33,31,26,98,88,80,30.03,29.63,15,5,15,0.29
2013-3-1,31,27,20,27,21,17,88,78,70,30.20,30.03,14,4,15,0.00
2013-3-2,29,23,14,19,16,12,89,76,64,30.22,30.14,13,3,14,0.00
2013-3-3,30,22,12,20,16,10,93,78,60,30.17,30.07,16,3,16,0.00
2013-3-4,34,23,9,23,16,7,94,74,51,30.25,30.12,11,2,11,0.00
2013-3-5,34,27,21,26,20,14,89,76,65,30.17,29.88,25,8,25,0.00
2013-3-6,39,33,27,30,28,24,90,81,70,30.27,29.98,19,5,19,0.00
2013-3-7,36,32,22,30,26,19,92,77,57,30.45,30.25,15,4,16,0.00
2013-3-8,42,30,17,27,22,16,94,74,52,30.56,30.42,10,2,10,0.00
2013-3-9,42,37,28,35,28,22,83,72,64,30.43,29.96,20,8,21,0.00
2013-3-10,53,47,42,45,41,35,98,80,69,29.97,29.69,16,7,19,0.29
2013-3-11,54,45,34,49,42,34,98,91,67,29.69,29.47,27,8,27,0.29
2013-3-12,34,32,29,34,29,25,98,89,74,29.93,29.67,22,8,25,0.08
2013-3-13,31,27,23,27,21,16,95,78,57,30.30,29.92,27,8,27,0.00
2013-3-14,38,30,21,26,21,18,89,71,49,30.34,30.13,17,4,18,0.01
2013-3-15,40,35,32,36,33,27,98,90,79,30.13,29.86,16,5,16,0.08
2013-3-16,34,29,26,33,26,21,98,88,74,30.11,29.78,18,6,19,0.00
2013-3-17,29,27,24,23,18,14,80,70,59,30.31,30.11,21,7,21,0.00
2013-3-18,34,28,22,32,25,18,97,89,77,30.17,29.61,29,8,29,0.00
2013-3-19,30,24,20,27,20,17,93,83,63,30.02,29.68,34,13,34,0.01
2013-3-20,28,21,14,18,16,13,92,80,61,30.05,29.99,23,9,23,0.00
2013-3-21,29,23,14,26,19,12,94,86,74,30.06,29.99,23,7,23,0.00
2013-3-22,34,29,25,26,23,19,88,76,67,30.10,30.04,17,5,17,0.01
2013-3-23,35,29,23,26,24,20,92,79,66,30.19,30.09,8,2,8,0.00
2013-3-24,38,30,23,28,24,20,93,78,59,30.10,29.73,31,7,31,0.00
2013-3-25,39,34,31,28,27,24,82,74,62,30.02,29.68,21,8,25,0.00
2013-3-26,40,34,30,34,30,27,97,85,69,30.21,30.01,18,5,20,0.02
2013-3-27,42,36,31,31,28,25,94,75,53,30.29,30.21,25,8,27,0.12
2013-3-28,48,37,29,31,27,24,91,70,44,30.34,30.29,18,4,18,0.00
2013-3-29,48,37,26,32,27,23,93,70,38,30.34,30.25,18,3,18,0.00
2013-3-30,56,40,22,36,28,21,96,67,31,30.26,29.88,18,4,19,0.00
2013-3-31,48,44,37,43,38,32,96,81,63,29.88,29.67,28,8,28,0.04
2013-4-1,37,30,27,32,19,14,87,63,48,30.16,29.78,27,9,28,0.00
2013-4-2,36,30,21,22,18,13,88,63,41,30.32,30.15,24,7,27,0.00
2013-4-3,45,32,24,22,19,12,87,60,29,30.50,30.31,19,3,19,0.00
2013-4-4,52,40,25,29,22,19,85,52,28,30.38,29.96,19,6,22,0.00
2013-4-5,48,40,32,29,25,17,75,57,31,30.21,29.97,17,5,19,0.00
2013-4-6,59,47,35,42,28,18,74,49,36,30.20,29.65,30,11,34,0.01
2013-4-7,58,45,35,49,38,31,95,76,60,30.02,29.56,33,9,33,0.06
2013-4-8,54,42,35,54,39,31,99,90,80,30.01,29.65,33,10,35,0.48
2013-4-9,48,43,38,48,43,38,99,99,98,30.06,29.85,34,5,34,1.78
2013-4-10,42,40,38,42,39,35,99,95,89,30.02,29.83,27,8,29,0.39
2013-4-11,38,36,35,37,36,34,99,98,86,29.99,29.64,35,13,36,1.31
2013-4-12,42,37,33,39,36,33,99,94,79,29.79,29.58,22,8,26,1.31
2013-4-13,39,37,34,36,32,28,97,83,68,30.01,29.79,25,9,28,0.05
2013-4-14,53,40,32,43,35,30,95,84,65,30.11,29.83,24,7,25,0.08
2013-4-15,65,55,45,57,49,39,96,80,72,29.93,29.79,25,9,28,0.63
2013-4-16,49,45,42,46,39,32,97,79,57,30.25,29.90,21,6,21,0.19
2013-4-17,51,45,41,46,39,33,98,78,62,30.32,29.93,37,9,41,1.25
2013-4-18,64,56,46,62,55,46,100,96,87,29.99,29.38,34,10,34,3.33
2013-4-19,61,39,33,58,35,28,96,84,70,29.79,29.40,37,15,40,0.34
2013-4-20,37,32,28,29,22,16,84,67,46,30.48,29.79,26,8,26,0.00
2013-4-21,52,39,26,34,26,21,87,61,38,30.63,30.41,19,6,25,0.00
2013-4-22,65,50,36,35,32,27,79,53,27,30.42,30.11,17,7,17,0.00
2013-4-23,65,51,41,52,43,34,96,75,50,30.11,29.83,17,7,17,0.45
2013-4-24,44,38,34,40,32,25,96,78,49,30.12,29.85,23,7,25,0.14
2013-4-25,48,41,35,38,34,29,94,74,54,30.34,30.05,25,8,25,0.17
2013-4-26,64,50,36,42,36,30,81,60,39,30.43,30.26,22,7,23,0.17
2013-4-27,70,58,43,48,40,35,84,54,29,30.30,30.03,17,5,17,0.00
2013-4-28,62,57,52,54,48,38,94,71,50,30.03,29.79,14,5,14,0.00
2013-4-29,71,59,45,57,52,44,98,78,55,29.91,29.79,13,3,13,0.00
2013-4-30,79,66,57,63,58,53,89,74,56,29.93,29.82,27,11,27,0.09
2013-5-1,84,74,62,62,58,54,77,59,38,30.12,29.93,21,6,21,0.09
2013-5-2,82,69,59,61,57,53,82,66,42,30.13,30.02,15,4,15,0.00
2013-5-3,80,67,54,59,53,39,93,64,35,30.06,29.92,25,6,25,0.00
2013-5-4,74,66,58,50,44,34,61,46,25,30.02,29.94,23,7,23,0.00
2013-5-5,74,64,55,50,42,32,63,46,24,30.03,29.94,20,6,21,0.00
2013-5-6,75,64,53,48,41,33,69,45,25,30.02,29.92,17,4,17,0.00
2013-5-7,78,66,50,54,50,46,89,58,38,30.02,29.92,18,3,18,0.00
2013-5-8,79,68,53,57,52,49,90,60,36,30.00,29.90,17,3,17,0.00
2013-5-9,81,65,50,59,49,40,89,61,26,29.94,29.83,20,2,20,0.01
2013-5-10,59,50,45,58,49,43,98,95,89,29.90,29.72,16,4,17,0.64
2013-5-11,52,46,38,49,42,34,96,88,63,29.94,29.74,29,7,29,0.10
2013-5-12,45,40,34,37,32,26,93,72,49,30.13,29.92,25,9,28,0.10
2013-5-13,52,43,30,37,29,22,97,63,31,30.21,30.06,17,3,18,0.00
2013-5-14,74,61,47,58,45,30,69,54,45,30.06,29.60,23,7,23,0.00
2013-5-15,76,70,54,60,52,42,84,55,33,29.78,29.52,23,7,23,0.00
2013-5-16,79,64,48,54,48,43,93,60,31,29.96,29.77,16,3,16,0.00
2013-5-17,69,61,52,50,46,41,69,57,41,30.07,29.96,21,7,23,0.00
2013-5-18,83,68,56,63,53,47,79,60,43,30.09,29.93,12,4,14,0.00
2013-5-19,86,74,58,64,58,48,70,57,46,29.96,29.75,17,5,18,0.00
2013-5-20,88,79,70,72,66,59,84,66,39,29.80,29.67,25,8,26,0.00
2013-5-21,81,73,64,67,65,62,95,77,60,29.72,29.62,33,7,36,0.37
2013-5-22,70,66,60,67,64,58,97,93,84,29.66,29.57,19,4,20,0.46
2013-5-23,60,52,44,58,50,38,99,93,77,30.20,29.65,21,5,21,0.24
2013-5-24,57,47,36,46,40,34,94,76,57,30.38,30.20,15,4,15,0.00
2013-5-25,64,52,38,46,40,36,97,69,37,30.39,30.26,12,2,13,0.00
2013-5-26,68,58,43,45,41,35,92,57,31,30.33,30.17,13,4,14,0.00
2013-5-27,58,54,52,51,46,39,95,76,52,30.19,29.92,22,7,24,0.12
2013-5-28,76,64,53,69,62,51,98,93,76,29.93,29.72,18,5,18,0.90
2013-5-29,80,71,63,69,65,61,95,84,61,29.93,29.72,21,6,22,0.15
2013-5-30,86,78,70,72,68,64,87,73,57,29.93,29.81,23,8,25,0.00
2013-5-31,78,73,66,69,66,63,93,79,65,29.87,29.72,31,8,31,0.27
2013-6-1,78,71,62,68,64,62,98,81,64,29.74,29.60,22,8,23,1.02
2013-6-2,63,56,47,62,51,42,98,86,68,30.00,29.60,18,6,21,1.02
2013-6-3,64,53,39,48,44,38,97,73,49,30.10,29.99,16,3,17,0.00
2013-6-4,73,60,47,53,48,44,93,66,44,30.17,30.07,12,3,13,0.00
2013-6-5,70,62,58,52,46,37,82,58,33,30.12,29.95,19,6,21,0.01
2013-6-6,65,58,54,56,53,50,92,81,68,29.97,29.86,15,5,16,0.08
2013-6-7,58,54,51,50,49,48,92,84,72,29.91,29.86,11,2,11,0.00
2013-6-10,70,67,63,67,65,62,96,94,91,29.73,29.69,9,4,11,0.15
2013-6-14,77,70,57,59,56,50,93,62,41,30.15,29.85,14,3,14,0.00
2013-6-15,74,65,55,64,60,54,97,83,67,30.09,29.88,18,4,20,0.01
2013-6-16,78,70,64,67,63,58,96,81,53,29.90,29.80,23,6,26,0.51
2013-6-17,83,72,59,66,60,55,96,69,39,29.94,29.85,16,4,17,0.00
2013-6-18,70,64,57,60,53,42,93,70,38,30.10,29.91,18,5,20,0.00
2013-6-19,77,63,48,53,47,43,86,57,33,30.20,30.09,15,3,18,0.00
2013-6-20,85,69,53,60,54,42,94,63,30,30.21,30.12,10,2,13,0.00
2013-6-21,84,76,67,67,63,58,82,66,51,30.17,29.96,22,6,24,0.00
2013-6-22,86,77,69,73,68,66,90,77,54,30.10,29.96,15,3,15,0.00
2013-6-23,88,79,69,72,68,66,91,71,49,30.03,29.92,18,6,21,0.00
2013-6-24,85,77,70,71,68,64,88,74,56,30.04,29.85,19,5,20,0.00
2013-6-25,81,73,67,73,68,64,96,86,70,29.99,29.81,19,4,21,0.36
2013-6-26,84,75,67,72,69,65,96,82,60,29.87,29.72,13,4,15,0.00
2013-6-27,83,74,67,74,70,66,98,86,61,29.75,29.65,19,4,19,0.00
2013-6-28,78,71,65,68,65,62,97,82,64,29.66,29.55,21,4,21,0.00
2013-6-29,72,68,62,65,63,60,97,85,74,29.76,29.57,16,3,19,0.01
2013-6-30,79,71,63,64,60,50,86,68,48,29.99,29.76,15,4,18,0.01
2013-7-1,76,67,59,57,50,42,68,55,43,30.11,29.99,28,7,28,0.00
2013-7-2,67,62,55,63,56,42,95,81,45,30.11,30.05,13,3,16,0.32
2013-7-3,81,68,60,68,62,54,94,81,62,30.10,30.02,14,4,19,0.00
2013-7-4,79,70,62,66,63,58,98,79,51,30.14,30.06,11,3,13,0.00
2013-7-5,85,75,64,67,64,60,94,71,45,30.12,30.03,11,2,12,0.00
2013-7-6,85,76,68,71,68,66,92,76,56,30.09,29.97,10,3,11,0.00
2013-7-7,85,76,71,72,70,68,94,81,59,30.02,29.94,14,4,14,0.00
2013-7-8,79,75,72,73,71,69,95,87,75,30.02,29.94,20,5,21,0.01
2013-7-9,86,75,68,77,71,67,98,88,67,29.99,29.85,22,2,26,0.24
2013-7-10,81,76,61,76,68,56,96,78,53,29.98,29.81,21,6,22,0.24
2013-7-11,82,68,56,61,57,50,97,71,37,30.08,29.98,15,2,17,0.00
2013-7-12,81,70,58,61,58,51,92,68,38,30.18,30.07,14,4,15,0.00
2013-7-13,85,74,63,65,61,56,92,65,42,30.19,30.13,14,4,16,0.00
2013-7-14,91,78,64,71,67,61,93,69,48,30.24,30.18,10,3,12,0.00
2013-7-15,94,81,70,76,73,68,99,79,50,30.28,30.20,10,2,15,0.27
2013-7-16,90,82,73,77,74,71,98,79,55,30.30,30.23,14,4,17,0.00
2013-7-17,91,82,74,78,74,72,93,78,58,30.28,30.15,15,4,16,0.00
2013-7-18,92,84,74,78,74,71,94,74,53,30.16,29.91,18,4,19,0.00
2013-7-19,92,84,79,75,74,70,86,73,50,29.93,29.73,29,9,29,0.00
2013-7-23,78,72,59,72,61,49,89,69,56,29.94,29.69,22,8,24,0.27
2013-7-24,73,62,49,55,51,47,95,69,44,30.07,29.94,13,2,17,0.00
2013-7-25,77,66,55,59,55,52,94,72,44,30.12,30.05,11,3,13,0.00
2013-7-26,75,67,62,64,60,55,95,80,60,30.07,29.88,20,5,21,0.23
2013-7-27,68,62,56,64,58,51,98,87,72,29.89,29.82,19,5,20,0.23
2013-7-28,64,57,54,56,54,51,99,89,67,29.99,29.82,19,5,19,0.40
2013-7-29,68,61,55,58,56,53,97,85,67,30.22,29.97,13,4,13,0.11
2013-7-30,79,66,51,65,57,50,98,77,51,30.26,30.12,10,2,12,0.03
2013-7-31,70,66,63,67,64,61,96,92,84,30.12,29.93,9,2,10,0.19
2013-8-1,76,68,60,66,60,53,98,80,48,29.96,29.92,20,5,23,0.01
2013-8-2,73,65,58,67,61,55,95,88,81,29.95,29.85,18,4,18,0.02
2013-8-3,76,67,58,65,58,50,99,76,45,30.09,29.93,19,3,19,0.01
2013-8-4,73,63,53,58,54,50,96,74,48,30.22,30.09,15,3,16,0.00
2013-8-5,71,61,50,62,55,48,97,82,61,30.14,29.95,12,3,13,0.00
2013-8-6,77,70,65,70,66,62,93,88,77,29.96,29.86,12,5,13,0.03
2013-8-7,81,72,64,73,68,62,96,87,75,29.94,29.80,17,5,20,0.56
2013-8-8,77,67,59,62,58,52,94,74,44,30.05,29.94,13,3,16,0.56
2013-8-9,78,68,54,64,59,52,94,75,51,30.03,29.97,16,3,17,0.00
2013-8-10,78,69,60,62,58,52,93,70,43,30.15,30.03,10,2,11,0.00
2013-8-11,76,67,58,62,58,55,95,74,50,30.14,30.06,11,2,13,0.00
2013-8-12,74,68,64,70,65,59,99,92,76,30.06,29.86,8,2,9,1.87
2013-8-13,67,61,53,63,52,47,95,74,51,30.14,29.91,17,5,19,0.00
2013-8-14,69,57,45,54,50,44,97,78,49,30.24,30.14,13,2,15,0.00
2013-8-15,73,61,49,60,53,48,97,79,48,30.20,30.12,17,3,18,0.00
2013-8-16,80,66,53,62,56,52,97,74,44,30.22,30.15,8,2,9,0.01
2013-8-17,80,67,54,62,57,52,98,72,42,30.27,30.19,13,2,13,0.00
2013-8-18,81,68,54,65,58,53,97,74,44,30.24,30.12,17,2,22,0.00
2013-8-19,80,68,55,64,60,54,97,76,50,30.14,30.05,15,2,17,0.00
2013-8-20,84,73,62,69,65,59,93,77,49,30.14,30.06,14,4,15,0.00
2013-8-21,86,76,67,71,66,62,91,73,48,30.10,29.96,15,5,16,0.00
2013-8-22,78,70,64,71,68,63,98,92,72,30.09,29.96,26,2,32,0.23
2013-8-23,81,69,56,66,57,50,98,70,36,30.21,30.09,13,2,14,0.23
2013-8-24,83,71,59,63,59,54,92,69,43,30.31,30.19,12,4,12,0.00
2013-8-25,86,74,63,69,64,58,86,70,55,30.28,30.13,18,6,21,0.00
2013-8-26,83,76,68,73,68,63,87,78,71,30.16,29.97,18,5,20,0.00
2013-8-27,90,81,74,78,73,71,97,79,57,29.99,29.78,19,6,22,0.06
2013-8-28,83,76,70,75,72,68,98,90,69,30.02,29.78,13,2,16,0.54
2013-8-29,86,76,68,72,69,66,98,81,55,30.09,29.99,11,2,11,0.00
2013-8-30,89,77,69,74,71,67,96,81,60,29.99,29.73,19,5,21,0.00
2013-8-31,80,72,65,70,66,64,97,83,66,29.86,29.78,12,3,13,0.00
2013-9-1,83,73,66,73,68,64,96,87,68,29.85,29.71,13,3,13,0.00
2013-9-2,71,66,60,68,60,52,96,82,68,29.98,29.75,16,4,20,0.00
2013-9-3,72,63,54,58,55,51,93,75,58,30.08,29.97,17,3,17,0.00
2013-9-4,78,66,54,64,59,53,97,81,52,30.13,30.04,19,4,20,0.01
2013-9-5,73,63,54,62,50,42,91,66,36,30.29,30.13,13,3,15,0.00
2013-9-6,80,65,52,58,52,48,89,65,38,30.29,30.04,14,4,16,0.00
2013-9-7,80,71,65,69,64,57,90,77,67,30.05,29.91,15,4,15,0.00
2013-9-8,76,69,65,66,62,58,97,80,56,30.09,29.96,17,5,19,0.00
2013-9-9,84,71,60,74,66,57,99,85,68,30.04,29.83,18,6,19,2.26
2013-9-10,91,83,74,74,69,65,89,64,44,29.98,29.86,23,7,24,0.00
2013-9-11,86,77,70,72,68,63,93,77,50,30.03,29.95,16,4,17,0.02
2013-9-12,75,68,57,68,59,49,98,75,49,30.06,29.91,19,4,20,0.01
2013-9-13,63,55,46,49,45,40,91,71,43,30.17,30.05,17,4,20,0.01
2013-9-14,67,54,42,53,47,40,97,77,48,30.24,30.09,13,3,16,0.00
2013-9-15,59,56,54,57,52,44,97,84,68,30.19,30.07,11,3,11,0.09
2013-9-16,62,55,49,55,49,44,97,83,61,30.40,30.19,13,4,14,0.09
2013-9-17,68,54,42,53,46,40,96,77,48,30.44,30.22,13,4,10,0.00
2013-9-18,79,65,54,59,54,50,87,70,48,30.22,29.99,16,5,0,0.00
2013-9-19,75,69,63,68,64,57,96,85,68,30.01,29.83,18,6,0,0.00
2013-9-20,74,70,63,71,67,59,96,89,83,29.86,29.74,15,6,0,0.06
2013-9-21,63,59,54,59,52,47,95,79,60,29.94,29.73,17,5,0,0.00
2013-9-22,55,52,45,48,45,43,95,78,65,30.12,29.94,12,2,0,0.00
2013-9-23,63,51,41,49,44,39,95,78,57,30.22,30.12,15,4,0,0.00
2013-10-3,75,71,69,68,67,66,92,86,77,30.00,29.70,13,5,17,0.01
2013-10-4,77,70,65,69,66,63,95,88,72,29.99,29.89,13,3,16,0.01
2013-10-5,76,70,65,72,67,64,99,93,83,30.00,29.77,17,6,17,1.15
2013-10-6,70,60,51,68,58,49,97,92,71,29.79,29.68,16,5,18,0.26
2013-10-7,59,52,47,53,48,45,99,88,66,30.12,29.70,20,5,22,0.20
2013-10-8,72,58,45,54,48,44,97,74,49,30.26,30.12,16,6,19,0.00
2013-10-9,70,59,47,52,48,44,94,69,44,30.31,30.19,12,4,13,0.00
2013-10-10,72,59,45,55,49,43,96,71,43,30.22,30.11,10,3,11,0.00
2013-10-11,71,59,47,52,47,40,83,67,34,30.16,30.04,12,4,14,0.00
2013-10-12,77,64,53,63,54,45,97,72,46,30.11,29.99,19,6,19,0.09
2013-10-13,61,54,44,59,47,43,97,81,58,30.40,30.11,17,3,18,0.01
2013-10-14,61,50,40,45,41,36,97,74,42,30.45,30.26,14,3,18,0.00
2013-10-15,65,55,45,61,52,43,97,89,77,30.26,29.80,17,7,22,0.21
2013-10-16,62,53,50,61,50,47,98,92,82,29.91,29.80,16,6,19,0.21
2013-10-17,52,50,46,51,49,44,99,97,93,29.90,29.76,19,4,19,0.46
2013-10-18,59,48,42,51,45,40,97,88,69,29.93,29.86,23,6,24,0.00
2013-10-19,52,46,42,44,41,35,93,84,55,29.92,29.77,19,4,21,0.23
2013-10-20,58,48,38,49,42,37,98,81,56,29.93,29.75,24,5,28,0.12
2013-10-21,55,48,40,50,42,28,95,80,62,29.93,29.79,22,8,25,0.26
2013-10-22,47,41,35,37,33,27,92,72,60,29.96,29.91,18,6,18,0.01
2013-10-23,42,37,34,38,34,32,96,90,70,30.02,29.89,18,4,19,0.03
2013-10-24,42,36,33,38,34,32,98,93,72,30.27,30.00,15,4,17,0.14
2013-10-25,45,40,34,38,34,30,97,81,55,30.40,30.07,23,6,25,0.01
2013-10-26,52,47,41,43,37,33,97,69,56,30.07,29.81,35,10,36,0.03
2013-10-27,51,43,36,38,35,33,90,73,54,30.09,30.01,20,4,21,0.00
2013-10-28,48,41,34,39,36,32,95,80,70,30.45,30.08,18,4,18,0.00
2013-10-29,52,43,39,42,35,31,87,74,66,30.47,30.25,13,5,16,0.00
2013-10-30,63,52,39,56,46,36,98,83,59,30.25,29.88,15,5,16,0.26
2013-10-31,62,60,54,62,59,54,100,99,98,29.89,29.11,23,8,26,1.19
2013-11-1,54,47,45,54,45,42,99,93,83,29.70,29.19,30,9,33,0.29
2013-11-2,48,45,42,45,41,37,98,88,70,30.14,29.69,14,3,14,0.08
2013-11-3,48,42,36,40,35,33,92,78,59,30.43,30.14,15,5,15,0.00
2013-11-4,52,45,38,42,36,33,87,71,51,30.43,30.25,23,10,27,0.00
2013-11-5,58,53,50,49,46,42,87,79,70,30.34,30.07,24,7,24,0.00
2013-11-6,56,50,41,55,48,39,99,95,71,30.08,29.76,27,9,28,1.08
2013-11-7,42,38,33,40,33,30,96,81,67,30.22,30.06,18,7,23,0.05
2013-11-8,44,38,32,35,32,28,97,79,55,30.36,30.13,13,4,14,0.00
2013-11-9,52,48,41,44,39,32,78,71,62,30.13,29.85,28,11,32,0.00
2013-11-10,46,42,35,34,33,30,86,70,59,30.32,29.98,27,10,30,0.00
2013-11-11,43,36,27,40,32,22,97,87,79,30.46,30.09,18,6,18,0.21
2013-11-12,34,27,21,25,21,18,92,78,56,30.68,30.46,21,4,23,0.00
2013-11-13,41,31,21,27,22,19,93,72,47,30.62,30.22,28,8,28,0.00
2013-11-14,48,39,32,30,27,24,74,63,49,30.23,30.00,25,9,25,0.00
2013-11-15,50,43,38,35,32,29,74,64,51,30.06,30.00,15,6,16,0.00
2013-11-16,56,49,40,55,44,33,99,84,72,30.06,29.69,25,10,29,0.33
2013-11-17,64,56,42,61,54,41,99,96,84,29.69,29.18,48,13,52,1.18
2013-11-18,46,38,35,41,31,25,84,75,66,30.23,29.57,28,12,33,1.18
2013-11-19,42,35,30,27,25,24,79,67,50,30.44,30.23,17,3,17,0.00
2013-11-20,44,37,30,34,27,24,81,69,47,30.44,30.23,22,7,22,0.00
2013-11-21,51,45,39,45,41,34,97,85,75,30.28,30.20,15,1,16,0.13
2013-11-22,45,37,27,45,34,24,98,87,72,30.47,30.19,18,5,24,0.01
2013-11-23,31,24,17,26,17,6,92,72,52,30.67,30.37,25,8,27,0.00
2013-11-24,25,20,17,19,13,8,87,75,57,30.73,30.46,20,5,22,0.00
2013-11-25,33,26,20,31,19,7,95,76,56,30.46,30.14,27,10,29,0.00
2013-11-26,33,30,25,30,26,17,93,85,70,30.14,30.03,18,6,20,0.00
2013-11-27,30,24,19,20,16,13,83,72,54,30.30,30.10,20,6,23,0.00
2013-11-28,27,24,20,23,19,14,92,80,66,30.53,30.30,17,4,18,0.00
2013-11-29,34,27,19,25,22,17,95,83,64,30.74,30.53,18,3,18,0.00
2013-11-30,46,37,29,33,28,22,81,71,59,30.56,30.11,19,7,19,0.00
2013-12-1,42,37,32,34,31,28,92,79,60,30.15,30.06,12,2,13,0.00
2013-12-2,40,34,30,32,28,24,94,80,62,30.06,29.92,12,4,12,0.00
2013-12-3,36,34,32,36,32,24,99,91,70,29.94,29.83,18,6,20,0.31
2013-12-4,57,46,36,56,45,36,99,98,87,29.88,29.58,22,7,28,0.31
2013-12-5,56,36,28,52,30,21,88,79,72,30.24,29.59,26,12,31,0.00
2013-12-6,28,23,20,21,18,15,90,80,74,30.52,30.24,16,5,18,0.00
2013-12-7,21,17,11,18,14,9,93,88,80,30.73,30.52,14,4,14,0.00
2013-12-8,21,18,12,20,14,10,94,87,71,30.69,30.06,18,5,19,0.00
2013-12-9,29,24,16,27,20,10,95,85,71,30.23,29.96,27,10,32,0.00
2013-12-10,22,17,10,19,13,1,93,83,65,30.24,30.00,25,9,26,0.00
2013-12-11,20,17,12,19,14,10,94,89,81,30.48,30.23,17,6,20,0.00
2013-12-12,25,16,11,22,13,8,94,89,84,30.48,30.21,19,6,22,0.00
2013-12-13,28,24,21,23,20,17,91,85,76,30.27,30.17,20,4,22,0.00
2013-12-14,21,19,16,18,17,14,93,90,84,30.25,29.93,22,8,24,0.00
2013-12-15,24,19,15,22,16,11,94,87,75,30.09,29.86,23,7,25,0.00
2013-12-16,22,15,6,15,11,4,92,84,66,30.20,30.04,10,3,10,0.00
2013-12-17,32,26,17,29,23,14,96,91,79,30.04,29.88,18,6,23,0.00
2013-12-18,30,28,24,26,20,15,93,75,62,30.15,29.85,18,8,22,0.00
2013-12-19,41,35,27,36,32,18,96,87,69,29.97,29.82,16,4,16,0.01
2013-12-20,33,32,31,32,31,29,97,96,95,29.87,29.75,14,4,16,0.01
2013-12-21,33,32,30,32,31,29,98,97,94,29.87,29.68,14,3,16,0.00
2013-12-22,32,31,30,31,30,29,96,95,94,29.71,29.55,12,4,14,0.00
2013-12-27,40,35,28,34,31,26,96,88,75,30.32,30.08,21,7,22,0.24
2013-12-28,47,40,33,35,34,32,95,79,64,30.12,29.88,24,8,27,0.21
2013-12-29,42,32,19,34,26,11,94,80,70,30.13,29.76,20,7,21,0.00
2013-12-30,19,17,14,14,11,6,91,78,67,30.35,30.13,14,4,16,0.00
2013-12-31,18,15,13,16,13,11,93,91,88,30.42,30.17,18,5,19,0.00
2014-1-1,14,11,10,12,8,4,92,84,71,30.48,30.34,16,6,17,0.00
2014-1-2,14,11,2,10,5,-4,87,77,62,30.46,30.27,20,6,23,0.00